Погода в Майами

США     25°47′32″N   80°15′03″W
темп.,
°C
ветер,
м/с
пор.,
м/с
влажн.,
%
обл.,
%
осадки,
мм/ч
давл.,
гПа
погр.,
м
7 июля, чт
чт723:00+29ююв456899 0.0 1017793
02:00+29юв336688 0.0 1016833
05:00+29вюв2366100 0.3 1016810
08:00+29вюв4469100 0.4 1017920
11:00+30вюв546099 0.1 10171291
14:00+31вюв555656 0.1 10171281
17:00+30вюв666148 0.2 10161222
20:00+30в565787 0.2 10171057
8 июля, пт
пт823:00+29вюв666599 0.0 10171193
02:00+29вюв566699 0.1 10161099
05:00+29юв5669100 0.9 1017964
08:00+29вюв566785 1.6 10181066
11:00+31вюв666229 0.3 10191305
14:00+31юв66595 0.4 10191424
17:00+31вюв656027 0.6 10181312
20:00+30вюв456625 0.7 1018857
9 июля, сб
сб923:00+29юв56675 0.0 1019905
02:00+29юв676713 0.0 10181007
05:00+29юв567394 0.1 1018893
08:00+29ююв557286 1.6 1019843
11:00+30юв556718 1.0 10191038
14:00+31юв666217 1.7 10191237
17:00+30ююв656229 0.1 10181013
20:00+30ююв44640 0.1 1018777
10 июля, вс
вс1023:00+30ююв45650 0.3 1018805
02:00+29ю34651 0.3 1017847
05:00+29ю34682 0.0 1017669
08:00+29ю346818 0.2 1017798
11:00+30ююв546422 0.4 10171094
14:00+31юв545917 0.6 10161131
17:00+31ююв655816 0.0 1015835
20:00+30ююв556513 0.0 1015771
11 июля, пн
пн1123:00+29ююв44660 1.3 1016658
02:00+29ю34690 1.6 1015734
05:00+29ю34705 0.0 1014662
08:00+29ююв447111 0.1 1015878
11:00+30ююв446439 1.6 10161047
14:00+31юв656335 1.8 1015853
17:00+31юв665996 0.0 1014918
20:00+30юв666510 0.0 1014868